User: anonymous   Login
Location: Unspecified
(0.0000°N, 0.0000°E)
Time: 22:20:34
(UTC+02:00)
Language:

Delta 168 - Orbit

View from above orbital plane
View from above orbital plane
View from above satellite
View from above satellite

Ground track
Ground track

The orbit data is extracted from the following two-line orbital elements,

1 14051U 83041B   16147.19492250  .00002405  00000-0  21743-3 0  9999
2 14051  25.3303 115.6261 1103046  33.1603 333.3392 13.07185868527739
Epoch (UTC): 26 May 2016 04:40:41
Eccentricity: 0.1103046
inclination: 25.3303°
perigee height: 394 km
apogee height: 2074 km
right ascension of ascending node: 115.6261°
argument of perigee: 33.1603°
revolutions per day: 13.07185868
mean anomaly at epoch: 333.3392°
orbit number at epoch: 52773

The dashed part of the orbit path shows where the satellite is in the earth's shadow,  

DLR